Showing default

HAWK-2A, 47505

Orbit data source: Space-Track

HAWK-2A, 47505 is a payload satellite owned by HawkEye 360 (US) in SSO that was launched on Sun, 24 Jan 2021 UTC via an FALCON 9 launch vehicle from the Air Force Eastern Test Range (AFETR). Payload-class satellites include a variety of spacecraft equipped with specific instruments for various scientific and technological missions. These include communications satellites like Starlink; space stations such as the ISS; scientific satellites like the Hubble; Earth observation satellites from companies like Planet Labs, Umbra, and HawkEye 360; GPS; miniature CubeSats for education and research; and military/defense satellites.

Loading next visibility...
Identifier
47505, 2021-006CW
Orbit
SSO
Country
Flag of USUS
Related business
Manufacturer
UTIAS-SFL
Mission
Operational Commercial Sigint
Bus & Motor
DEFIANT, Unknown motor
Mass
31 kg wet, 30 kg dry
Launch date (UTC)
2021-01-24 (5 years ago)
Launch vehicle
FALCON 9
Launch site
Air Force Eastern Test Range (AFETR)
Object type
Payload
Rocket body
Debris
Shape & HBR
Box + 2 Pan, 1.0 m
Radar Cross Section
0.348 m², Medium (>0.1 m² and < 1m²)

Expand to show TLE details & history
Last TLE update: 2 days ago

TLE from 2 days ago
0 HAWK-2A
1 47505U 21006CW  26171.15405930  .00005164  00000-0  15576-3 0  9997
2 47505  97.2316 216.0844 0006465 178.2900 181.8366 15.34707718299954
Epoch: 2026-06-20T03:41Z
TLE epoch observation values (Epoch: 2026-06-20T03:41:50.723Z)
Latitude
-0.00011°
Longitude
-107.74969°
Altitude
469.325 km
Speed
7.629 km/s
True Right ascension
14h 24m 20s
True Declination
0° 00' 00"
Sunlit
Object was in full shadow at epoch
Visualization orbit readout
Latitude
Unknown
Longitude
Unknown
Altitude
Unknown
Speed
Unknown
Apparent Right ascension
Unknown
Apparent Declination
Unknown
Sunlit
N/A
Visualization observer readout
Local Sidereal Time
21:43:26
Azimuth
Unknown
Elevation
Unknown
Doppler factor
Unknown
Orbital elements
Apogee altitude
463.148 km
Perigee altitude
454.308 km
Semi-major axis
6,836.865 km
Eccentricity
0.00065
Inclination
97.2316°
RAAN
216.0844°
Arg. of periapsis
178.29°
True anomaly
181.83423°
Mean anomaly
181.8366°
Eccentric anomaly
181.83541°
Mean motion
3.83935 °/min
Orbital period
93.77 mins
BSTAR
0.00015576
Loading maneuver chart data...
Computing Atmospheric mass density...

Documentation

Showing up to 5 results
|